Gainesville, FL

9:00 PM EDT on July 21, 2017 (GMT -0400)
Gainesville Regional

Weather History for KGNV - August, 2014

Change the Weather History Date:

Saturday, August 2, 2014

  Actual Average Record
Temperature  
Mean Temperature 81 °F 81 °F  
Max Temperature 93 °F 91 °F 99 °F (1999)
Min Temperature 69 °F 72 °F 68 °F (1966)
Degree Days  
Heating Degree Days 0 0  
Month to date heating degree days 0 0  
Since 1 June heating degree days 0 0  
Since 1 July heating degree days 0 0  
Cooling Degree Days 16 16  
Month to date cooling degree days 33 32  
Year to date cooling degree days 1454 1483  
Since 1 June cooling degree days 953 973  
Growing Degree Days 32 (Base 50)    
Moisture  
Dew Point 72 °F    
Average Humidity 76    
Maximum Humidity 100    
Minimum Humidity 52    
Precipitation  
Precipitation 0.20 in 0.21 in 2.99 in (1978)
Month to date precipitation 0.20 0.41  
Year to date precipitation 32.05 29.59  
Snow  
Snow 0.00 in 0.00 in 0.00 in ()
Month to date snowfall 0.0 0.0  
Since 1 June snowfall 0.0 0.0  
Since 1 July snowfall 0.0 0.0  
Snow Depth 0.00 in    
Sea Level Pressure  
Sea Level Pressure 29.97 in    
Wind  
Wind Speed 4 mph (NE)    
Max Wind Speed 17 mph    
Max Gust Speed 21 mph    
Visibility 9 miles    
Events Rain , Thunderstorm    
T = Trace of Precipitation, MM = Missing Value Source: NWS Daily Summary

Daily Weather History Graph

Daily Weather History Graph

Search for Another Location

Airport or City:

Trip Planner

Search our weather history database for the weather conditions in past years. The results will help you decide how hot, cold, wet, or windy it might be!

Date:

Astronomy

Aug. 02, 2014 Rise Set
Actual Time 6:49 AM EDT 8:21 PM EDT
Civil Twilight 6:23 AM EDT 8:46 PM EDT
Nautical Twilight 5:52 AM EDT 9:17 PM EDT
Astronomical Twilight 5:20 AM EDT 9:49 PM EDT
Moon 12:38 PM EDT (8/2) No Moon Set
Length of Visible Light 14h 23m
Length of Day
13h 31m
Waxing Crescent, 36% of the Moon is Illuminated
Aug 2
Waxing Crescent
Aug 3
First Quarter
Aug 10
Full
Aug 17
Last Quarter
Aug 25
New

Hourly Weather History & Observations

Time (EDT) Temp. Heat Index Dew Point Humidity Pressure Visibility Wind Dir Wind Speed Gust Speed Precip Events Conditions
12:53 AM 72.0 °F - 70.0 °F 93% 29.99 in 10.0 mi Calm Calm - N/A   Clear
1:53 AM 72.0 °F - 69.1 °F 91% 29.98 in 10.0 mi Calm Calm - N/A   Clear
2:53 AM 71.1 °F - 69.1 °F 93% 29.96 in 10.0 mi Calm Calm - N/A   Clear
4:53 AM 70.0 °F - 68.0 °F 93% 29.95 in 10.0 mi Calm Calm - N/A   Clear
5:53 AM 70.0 °F - 69.1 °F 97% 29.95 in 9.0 mi Calm Calm - N/A   Clear
6:53 AM 70.0 °F - 68.0 °F 93% 29.97 in 9.0 mi Calm Calm - N/A   Clear
7:53 AM 73.0 °F - 70.0 °F 90% 29.99 in 10.0 mi Calm Calm - N/A   Clear
8:53 AM 80.1 °F 83.2 °F 70.0 °F 71% 30.00 in 10.0 mi North 9.2 mph - N/A   Clear
9:53 AM 82.9 °F 88.8 °F 73.0 °F 72% 30.01 in 10.0 mi Variable 4.6 mph - N/A   Mostly Cloudy
10:53 AM 84.9 °F 92.1 °F 73.9 °F 69% 30.01 in 10.0 mi Variable 3.5 mph - N/A   Mostly Cloudy
11:53 AM 87.1 °F 95.4 °F 73.9 °F 65% 30.01 in 10.0 mi North 6.9 mph - N/A   Mostly Cloudy
12:53 PM 89.1 °F 97.0 °F 73.0 °F 59% 29.99 in 10.0 mi SW 6.9 mph - N/A   Clear
1:53 PM 89.1 °F 96.0 °F 72.0 °F 57% 29.98 in 10.0 mi Calm Calm - N/A   Mostly Cloudy
2:53 PM 90.0 °F 96.9 °F 72.0 °F 55% 29.95 in 10.0 mi Variable 5.8 mph - N/A   Mostly Cloudy
3:53 PM 93.0 °F 103.2 °F 73.9 °F 54% 29.93 in 10.0 mi NNW 8.1 mph - N/A Thunderstorm Partly Cloudy
4:36 PM 90.0 °F 99.0 °F 73.9 °F 59% 29.92 in 10.0 mi ESE 13.8 mph 19.6 mph N/A Thunderstorm Mostly Cloudy
4:53 PM 82.9 °F 90.8 °F 75.9 °F 79% 29.93 in 8.0 mi SE 16.1 mph - 0.00 in Rain , Thunderstorm Light Thunderstorms and Rain
5:18 PM 78.1 °F - 75.0 °F 90% 29.95 in 1.8 mi WSW 8.1 mph - 0.05 in Rain , Thunderstorm Heavy Thunderstorms and Rain
5:33 PM 78.1 °F - 75.9 °F 93% 29.95 in 3.0 mi Variable 5.8 mph - 0.14 in Rain , Thunderstorm Rain
5:53 PM 78.1 °F - 75.0 °F 90% 29.96 in 9.0 mi East 10.4 mph - 0.16 in Rain , Thunderstorm Light Rain
6:33 PM 75.9 °F - 72.0 °F 87% 29.98 in 10.0 mi NNE 6.9 mph - 0.00 in   Overcast
6:48 PM 75.2 °F - 73.4 °F 94% 29.98 in 10.0 mi NE 4.6 mph - 0.00 in Rain , Thunderstorm Light Rain
6:53 PM 75.0 °F - 72.0 °F 90% 29.97 in 10.0 mi NE 3.5 mph - 0.00 in Rain , Thunderstorm Light Rain
7:53 PM 75.0 °F - 73.9 °F 96% 29.96 in 7.0 mi ESE 3.5 mph - 0.02 in Rain Light Rain
8:53 PM 75.0 °F - 73.9 °F 96% 29.96 in 9.0 mi NE 8.1 mph - 0.02 in   Partly Cloudy
9:53 PM 75.0 °F - 73.9 °F 96% 29.98 in 9.0 mi Variable 3.5 mph - N/A   Clear
10:53 PM 75.0 °F - 73.0 °F 94% 29.99 in 10.0 mi North 3.5 mph - N/A   Clear
11:53 PM 75.0 °F - 73.9 °F 96% 29.98 in 8.0 mi Calm Calm - N/A   Clear